Flag for Germany Weather past 2 weeks in Lüneburg, Lower Saxony, Germany

Now
66 °F

Scattered clouds.


Feels Like: 66 °F
Forecast: 52 / 75 °F
Wind: 14 mph from West

Location: Fassberg

Current Time: May 4, 2015 at 3:20:32 PM

Latest Report: May 4, 2015 at 2:20 PM


Visibility: N/A

Pressure: 29.80 "Hg

Humidity: 60%

Dew point: 52 °F

Location of LüneburgLocation

Historic Weather in Lüneburg — Graph

°F

Lüneburg temperature yesterday

Maximum temperature yesterday: 64 °F (at 1:20 PM)
Minimum temperature yesterday: 34 °F (at 1:20 AM)
Average temperature yesterday: 51 °F

Past Weeks' High & Low Weather Summary

 TemperatureHumidityPressure
High66 °F (Apr 20, 2:20 PM)100% (Apr 23, 4:20 AM)30.39 "Hg (Apr 23, 4:20 AM)
Low28 °F (Apr 20, 5:20 AM)27% (Apr 21, 5:20 PM)29.59 "Hg (May 3, 10:20 PM)
Average48 °F71%29.95 "Hg
* Reported Apr 19 1:20 PM — May 4 1:20 PM, Lüneburg, Weather by CustomWeather, © 2015

Note: Actual official high and low records may vary slightly from our data, if they occured in-between our weather recording intervals... More about our weather records

Advertising

Lüneburg weather history for previous 24 hours

 ConditionsComfort  
Time TempWeatherWind HumidityBarometerVisibility
1:20 PM
Mon, May 4
63 °FBroken clouds.10 mph68%29.80 "HgN/A
12:20 PM63 °FBroken clouds.15 mph64%29.77 "HgN/A
11:20 AM61 °FBroken clouds.16 mph68%29.77 "HgN/A
10:20 AM59 °FBroken clouds.18 mph72%29.77 "HgN/A
9:20 AM59 °FBroken clouds.16 mph77%29.74 "HgN/A
8:20 AM57 °FScattered clouds.16 mph82%29.71 "HgN/A
7:20 AM54 °FScattered clouds.12 mph94%29.71 "HgN/A
6:20 AM54 °FPassing clouds.9 mph94%29.68 "HgN/A
5:20 AM54 °FPassing clouds.10 mph94%29.65 "Hg5 mi
4:20 AM55 °FPassing clouds.9 mph94%29.65 "Hg4 mi
3:48 AM55 °FPassing clouds.9 mph100%29.62 "Hg5 mi
3:20 AM55 °FPartly cloudy.8 mph100%29.62 "HgN/A
2:49 AM57 °FPartly cloudy.9 mph94%29.62 "HgN/A
2:20 AM57 °FPartly cloudy.9 mph94%29.62 "HgN/A
1:20 AM57 °FPassing clouds.10 mph94%29.62 "Hg5 mi
1:01 AM57 °FPartly cloudy.9 mph94%29.59 "Hg5 mi
12:20 AM57 °FPartly cloudy.8 mph94%29.59 "Hg2 mi
11:20 PM
Sun, May 3
55 °FPassing clouds.8 mph100%29.59 "Hg2 mi
10:57 PM55 °FPassing clouds.9 mph100%29.59 "Hg2 mi
10:20 PM55 °FLight rain. Partly cloudy.8 mph100%29.59 "Hg5 mi
9:20 PM55 °FRain. Fog.7 mph94%29.62 "Hg2 mi
8:20 PM57 °FDrizzle. Overcast.9 mph88%29.62 "Hg2 mi
7:20 PM59 °FLight rain. Partly sunny.12 mph77%29.62 "HgN/A
6:20 PM63 °FPartly sunny.16 mph59%29.62 "HgN/A
5:20 PM63 °FPartly sunny.15 mph56%29.65 "HgN/A
4:20 PM64 °FPartly sunny.17 mph49%29.65 "HgN/A
3:20 PM64 °FBroken clouds.17 mph43%29.68 "HgN/A
Weather by CustomWeather, © 2015

See weather overviewHow to use our weather pages